DW4707 Campi Bisenzio - Firenze IT current weather conditions

sailwx.info

Last reported at 2014-Jul-20 17:31 UTC.
Time now 2014-Jul-30 01:01 UTC

Location: N 43°50' E 011°08'.
View on Google Maps.

See reports from other nearby stations

  
Tides and Currents Weather Stations Pressure Air Temp Water Temp Dewpoint Dewpoint Depression Visibility Wind Speed Wind Dir Waves Ship Positions
date/time (UTC)wind fromknots sea level pressurealtimeterstation pressurevisibilityair tempwater tempwave heightnotes
2014-Jul-29 23:47 165 19.4
2014-Jul-29 23:37 315 19.4
2014-Jul-29 23:27 19.4
2014-Jul-29 23:17 022 19.4
2014-Jul-29 23:07 043 19.4
2014-Jul-29 22:57 19.4
2014-Jul-29 22:47 355 19.4
2014-Jul-29 22:37 003 19.4
2014-Jul-29 22:27 112 19.4
2014-Jul-29 22:17 121 19.4
2014-Jul-29 22:07 041 19.4
2014-Jul-29 21:57 135 20.0
2014-Jul-29 21:47 225 20.0
2014-Jul-29 21:37 225 20.0
2014-Jul-29 21:27 180 20.0
2014-Jul-29 21:17 103 20.0
2014-Jul-29 21:07 003 20.0
2014-Jul-29 20:57 20.6
2014-Jul-29 20:47 180 20.6
2014-Jul-29 20:37 102 20.6
2014-Jul-29 20:27 180 20.6
2014-Jul-29 20:17 165 21.1
2014-Jul-29 20:07 045 21.1
2014-Jul-29 19:57 045 21.1
2014-Jul-29 19:47 005 21.1
2014-Jul-29 19:37 131 21.7
2014-Jul-29 19:27 022 21.1
2014-Jul-29 19:17 141 21.1
2014-Jul-29 19:07 025 21.1
2014-Jul-29 18:57 045 21.7
2014-Jul-29 18:47 079 21.7
2014-Jul-29 18:37 045 21.7
2014-Jul-29 18:27 21.7
2014-Jul-29 18:17 068 21.7
2014-Jul-29 18:07 158 21.7
2014-Jul-29 17:57 090 21.7
2014-Jul-29 17:47 021 21.7
2014-Jul-29 17:37 174 22.2
2014-Jul-29 17:27 180 22.2
2014-Jul-29 17:17 269 22.2
2014-Jul-29 17:07 203 22.2
2014-Jul-29 16:57 180 22.2
2014-Jul-29 16:47 202 22.2
2014-Jul-29 16:37 186 22.2
2014-Jul-29 16:27 090 22.2
2014-Jul-29 16:17 202 22.2
2014-Jul-29 16:07 307 22.2
2014-Jul-29 15:57 022 22.2
2014-Jul-29 15:47 069 22.2
2014-Jul-29 15:37 010 22.2
2014-Jul-29 15:27 22.8
2014-Jul-29 15:17 225 22.8
2014-Jul-29 15:07 022 22.2
2014-Jul-29 14:57 315 22.8
2014-Jul-29 14:47 135 22.2
2014-Jul-29 14:37 022 22.2
2014-Jul-29 14:27 338 22.2
2014-Jul-29 14:17 22.2
2014-Jul-29 14:07 033 22.2
2014-Jul-29 13:57 292 22.2
2014-Jul-29 13:47 158 21.7
2014-Jul-29 13:37 022 21.7
2014-Jul-29 13:27 21.1
2014-Jul-29 13:17 045 20.6
2014-Jul-29 13:07 052 20.6
2014-Jul-29 12:57 20.6
2014-Jul-29 12:47 21.1
2014-Jul-29 12:37 075 21.7
2014-Jul-29 12:27 135 22.8
2014-Jul-29 12:17 315 23.3
2014-Jul-29 12:07 041 23.9
2014-Jul-29 11:57 068 23.9
2014-Jul-29 11:47 022 23.3
2014-Jul-29 11:37 101 23.3
2014-Jul-29 11:27 022 23.9
2014-Jul-29 11:17 292 25.6
2014-Jul-29 11:07 011 25.6
2014-Jul-29 10:57 090 26.1
2014-Jul-29 10:47 180 25.6
2014-Jul-29 10:37 025 25.6
2014-Jul-29 10:27 022 26.1
2014-Jul-29 10:17 068 25.6
2014-Jul-29 10:07 158 25.0
2014-Jul-29 09:57 135 25.6
2014-Jul-29 09:47 202 25.6
2014-Jul-29 09:37 176 0 gusting 0 25.0
2014-Jul-29 09:27 115 25.0
2014-Jul-29 09:17 090 0 gusting 0 24.4
2014-Jul-29 09:07 201 24.4
2014-Jul-29 08:57 24.4
2014-Jul-29 08:47 23.9
2014-Jul-29 08:37 233 23.3
2014-Jul-29 08:27 124 23.3
2014-Jul-29 08:17 045 23.3
2014-Jul-29 08:07 202 23.3
2014-Jul-29 07:57 332 23.3
2014-Jul-29 07:47 225 23.3
2014-Jul-29 07:37 099 23.3
2014-Jul-29 07:27 027 23.3
2014-Jul-29 07:17 112 22.8
2014-Jul-29 07:07 221 22.8
2014-Jul-29 06:57 204 22.2
2014-Jul-29 06:47 158 22.2
2014-Jul-29 06:37 180 22.2
2014-Jul-29 06:27 202 21.7
2014-Jul-29 06:17 292 21.7
2014-Jul-29 06:07 135 21.7
2014-Jul-29 05:57 225 21.7
2014-Jul-29 05:47 21.7
2014-Jul-29 05:37 022 21.7
2014-Jul-29 05:27 094 21.7
2014-Jul-29 05:17 158 21.1
2014-Jul-29 05:07 135 21.7
2014-Jul-29 04:57 112 21.1
2014-Jul-29 04:47 090 21.7
2014-Jul-29 04:37 225 21.7
2014-Jul-29 04:27 248 21.7
2014-Jul-29 04:17 202 21.7
2014-Jul-29 04:07 202 21.7
2014-Jul-29 03:57 022 0 gusting 1 22.2
2014-Jul-29 03:47 225 22.8
2014-Jul-29 03:37 226 22.8
2014-Jul-29 03:27 258 22.8
2014-Jul-29 03:17 112 22.2
2014-Jul-29 03:07 225 22.2
2014-Jul-29 02:57 270 22.8
2014-Jul-29 02:47 270 22.8
2014-Jul-29 02:37 225 22.8
2014-Jul-29 02:27 202 22.8
2014-Jul-29 02:17 315 22.8
2014-Jul-29 02:07 270 22.8
2014-Jul-29 01:57 268 22.8
2014-Jul-29 01:47 159 22.8
2014-Jul-29 01:37 338 22.2
2014-Jul-29 01:27 115 22.2
2014-Jul-29 01:17 112 22.2
2014-Jul-29 01:07 158 22.2
2014-Jul-29 00:57 218 22.2
2014-Jul-29 00:47 248 22.2
2014-Jul-29 00:37 202 22.2
2014-Jul-29 00:27 202 22.2
2014-Jul-29 00:17 225 22.8
2014-Jul-29 00:07 22.8
2014-Jul-28 23:57 058 22.8
2014-Jul-28 23:47 202 22.8
2014-Jul-28 23:37 180 22.8
2014-Jul-28 23:27 099 22.8
2014-Jul-28 23:17 333 22.8
2014-Jul-28 23:07 338 22.8
2014-Jul-28 22:57 247 22.8
2014-Jul-28 22:47 206 22.8
2014-Jul-28 22:37 158 23.3
2014-Jul-28 22:27 211 23.3
2014-Jul-28 22:17 241 23.3
2014-Jul-28 22:07 202 23.3
2014-Jul-28 21:57 166 23.3
2014-Jul-28 21:47 138 23.3
2014-Jul-28 21:37 23.3
2014-Jul-28 21:27 172 23.3
2014-Jul-28 21:17 045 23.3
2014-Jul-28 21:07 180 23.3
2014-Jul-28 20:57 194 23.9
2014-Jul-28 20:47 250 23.9
2014-Jul-28 20:37 202 23.9
2014-Jul-28 20:27 202 23.9
2014-Jul-28 20:17 202 24.4
2014-Jul-28 20:07 090 24.4
2014-Jul-28 19:57 065 24.4
2014-Jul-28 19:47 202 24.4
2014-Jul-28 19:37 202 24.4
2014-Jul-28 19:27 073 25.0
2014-Jul-28 19:17 026 25.0
2014-Jul-28 19:07 068 25.0
2014-Jul-28 18:57 022 25.0
2014-Jul-28 18:47 097 25.6
2014-Jul-28 18:37 25.6
2014-Jul-28 18:27 005 26.1
2014-Jul-28 18:17 022 26.1
2014-Jul-28 18:07 26.7
2014-Jul-28 17:57 019 26.7
2014-Jul-28 17:47 356 27.2
2014-Jul-28 17:37 022 27.2
2014-Jul-28 17:27 022 27.2
2014-Jul-28 17:17 340 27.8
2014-Jul-28 17:07 022 27.8
2014-Jul-28 16:57 022 28.3
2014-Jul-28 16:47 28.3
2014-Jul-28 16:37 068 0 gusting 0 28.9
2014-Jul-28 16:27 28.9
2014-Jul-28 16:17 022 29.4
2014-Jul-28 16:07 315 29.4
2014-Jul-28 15:57 29.4
2014-Jul-28 15:47 30.0
2014-Jul-28 15:37 022 0 gusting 0 30.0
2014-Jul-28 15:27 021 30.0
2014-Jul-28 15:17 30.0
2014-Jul-28 15:07 015 30.6
2014-Jul-28 14:57 022 0 gusting 0 30.6
2014-Jul-28 14:47 30.6
2014-Jul-28 14:37 022 30.6
2014-Jul-28 14:27 008 0 gusting 0 30.0
2014-Jul-28 14:17 30.0
2014-Jul-28 14:07 042 30.0
2014-Jul-28 13:57 180 30.0
2014-Jul-28 13:47 045 30.6
2014-Jul-28 13:37 30.6
2014-Jul-28 13:27 022 30.0
2014-Jul-28 13:17 105 30.6
2014-Jul-28 13:07 022 30.0
2014-Jul-28 12:47 112 30.6
2014-Jul-28 12:37 041 0 gusting 0 30.6
2014-Jul-28 12:27 022 30.6
2014-Jul-28 12:17 022 30.0
2014-Jul-28 12:07 338 30.0
2014-Jul-28 11:57 022 30.0
2014-Jul-28 11:47 257 30.0
2014-Jul-28 11:37 158 0 gusting 0 30.0
2014-Jul-28 11:27 30.0
2014-Jul-28 11:17 016 30.0
2014-Jul-28 11:07 090 30.0
2014-Jul-28 10:57 180 30.0
2014-Jul-28 10:47 032 29.4
2014-Jul-28 10:37 045 29.4
2014-Jul-28 10:27 045 29.4
2014-Jul-28 10:17 045 28.9
2014-Jul-28 10:07 022 0 gusting 0 29.4
2014-Jul-28 09:57 158 29.4
2014-Jul-28 09:47 045 28.3
2014-Jul-28 09:37 135 28.3
2014-Jul-28 09:27 270 28.3
2014-Jul-28 09:17 180 28.3
2014-Jul-28 09:07 037 27.8
2014-Jul-28 08:57 022 27.8
2014-Jul-28 08:47 112 27.2
2014-Jul-28 08:37 112 27.2
2014-Jul-28 08:27 022 26.7
2014-Jul-28 08:17 26.7
2014-Jul-28 08:07 180 26.7
2014-Jul-28 07:57 045 26.1
2014-Jul-28 07:47 315 26.1
2014-Jul-28 07:37 068 0 gusting 0 25.6
2014-Jul-28 07:27 045 25.6
2014-Jul-28 07:17 045 25.0
2014-Jul-28 07:07 135 25.0
2014-Jul-28 06:57 022 24.4
2014-Jul-28 06:47 141 24.4
2014-Jul-28 06:37 045 24.4
2014-Jul-28 06:27 338 23.9
2014-Jul-28 06:17 158 23.9
2014-Jul-28 06:07 022 23.9
2014-Jul-28 05:57 068 23.3
2014-Jul-28 05:47 23.3
2014-Jul-28 05:37 068 21.7
2014-Jul-28 05:27 045 20.6
2014-Jul-28 05:17 180 20.0
2014-Jul-28 05:07 172 19.4
2014-Jul-28 04:57 180 19.4
2014-Jul-28 04:47 180 19.4
2014-Jul-28 04:37 180 19.4
2014-Jul-28 04:27 158 19.4
2014-Jul-28 04:17 158 19.4
2014-Jul-28 04:07 158 19.4
2014-Jul-28 03:57 158 19.4
2014-Jul-28 03:47 158 19.4
2014-Jul-28 03:37 180 19.4
2014-Jul-28 03:27 180 19.4
2014-Jul-28 03:17 20.0
2014-Jul-28 03:07 158 19.4
2014-Jul-28 02:57 135 20.0
2014-Jul-28 02:47 045 20.0
2014-Jul-28 02:37 158 20.0
2014-Jul-28 02:27 158 20.0
2014-Jul-28 02:17 090 20.0
2014-Jul-28 02:07 180 20.0
2014-Jul-28 01:57 248 20.6
2014-Jul-28 01:47 180 20.6
2014-Jul-28 01:37 160 20.6
2014-Jul-28 01:27 112 20.6
2014-Jul-28 01:17 180 20.6
2014-Jul-28 01:07 158 21.1